User: anonymous   Login
Location: Caltech
(34.1382°N, 118.1253°W)
Time: 15:01:08
(UTC-07:00)
Language:

Hamsat - Orbit

View from above orbital plane
View from above orbital plane
View from above satellite
View from above satellite

Ground track
Ground track

The orbit data is extracted from the following two-line orbital elements,

1 28650U 05017B   16274.48139542  .00000749  00000-0  86209-4 0  9999
2 28650  97.6191 252.1914 0022055 270.9765  88.8925 14.88421852617535
Epoch (UTC): 30 September 2016 11:33:12
Eccentricity: 0.0022055
inclination: 97.6191°
perigee height: 587 km
apogee height: 618 km
right ascension of ascending node: 252.1914°
argument of perigee: 270.9765°
revolutions per day: 14.88421852
mean anomaly at epoch: 88.8925°
orbit number at epoch: 61753

The dashed part of the orbit path shows where the satellite is in the earth's shadow,  

DLR